Location: Winterland
(47.1574°N, 55.3067°W)
Time: 14:42:00
(UTC+00:00)

Tiangong - Pass Details

Date: 22 August 2022
Orbit: 377 x 382 km, 41.5° (Epoch: 27 September)

Event Time Altitude Azimuth Distance (km) Brightness Sun altitude
Rises 00:42:01 0° 262° (W) 2,239 2.3 -18.4°
Reaches altitude 10° 00:44:21 10° 247° (WSW) 1,385 1.0 -18.7°
Enters shadow 00:45:51 19° 221° (SW) 975 -0.1 -18.9°
